Location: Calvatone
(45.1167°N, 10.4333°E)
Time: 08:47:40
(UTC+00:00)

METEOR M2 - Pass Details

Date: 09 December 2023
Orbit: 818 x 826 km, 98.4° (Epoch: 24 February)

Event Time Altitude Azimuth Distance (km) Brightness Sun altitude
Rises 03:38:15 0° 33° (NNE) 3,367 ? -31.9°
Reaches altitude 10° 03:42:16 10° 63° (ENE) 2,425 ? -31.2°
Maximum altitude 03:44:23 12° 87° (E) 2,261 ? -30.8°
Drops below altitude 10° 03:46:29 10° 110° (ESE) 2,416 ? -30.5°
Sets 03:50:27 0° 140° (SE) 3,340 ? -29.8°
